SCP
4 3 2 2 2 2 2 2 2 2 2 2 1 1 1 1 1 2 2 3 3 3 3 3 3 3 3 3 3 4 4 4 3 2 1 0 0 0 0 0 0 0 0
5 4 3 3 3 3 3 3 2 2 2 2 2 2 2 2 2 2 2 2 3 3 3 3 3 3 3 3 3 4 4 4 3 2 1 0 0 0 0 0 0 0 0
6 5 4 4 4 5 5 4 3 3 3 3 3 3 3 2 2 2 2 2 2 2 3 3 3 4 3 3 4 4 5 5 4 2 1 0 0 0 0 0 0 0 0
6 6 5 5 6 7 7 7 6 5 4 4 4 4 3 3 2 2 2 2 2 2 3 3 3 3 3 4 4 5 5 5 4 2 1 0 0 0 0 0 0 0 0
8 7 6 7 9 11 11 9 8 7 6 6 6 5 4 3 3 2 2 3 3 3 3 2 2 2 3 3 3 4 5 5 4 2 1 0 0 0 0 0 0 0 0
8 8 7 9 12 15 14 11 9 8 7 7 7 6 5 4 3 2 2 2 3 3 3 2 2 2 2 2 2 3 4 5 3 1 1 0 0 0 0 0 0 0 0
7 8 9 10 14 17 15 11 9 8 7 7 7 6 5 3 2 2 2 2 2 2 2 2 2 2 2 1 1 2 3 3 2 1 1 1 0 0 0 0 0 0 0
6 7 8 11 14 15 12 10 8 8 7 7 6 6 4 3 2 1 1 2 2 2 2 2 2 2 2 1 1 1 2 2 1 1 0 1 1 0 0 0 0 0 0
6 6 7 9 11 11 10 9 9 8 7 6 6 5 4 2 1 1 1 1 2 2 2 2 2 2 1 1 1 1 1 1 1 0 0 0 0 0 0 0 0 0 0
6 6 6 7 8 9 9 9 9 9 8 6 5 5 3 2 2 1 1 1 1 1 1 1 1 1 1 1 1 1 1 1 1 0 0 0 0 0 0 0 0 0 0
7 6 5 6 7 9 9 9 8 8 7 6 5 4 3 3 2 1 1 1 1 1 1 1 1 1 1 0 0 1 1 1 1 0 0 0 0 0 0 0 0 0 0
7 6 5 6 7 9 9 8 8 8 6 5 5 4 4 3 3 1 1 0 1 1 1 1 1 1 0 0 0 0 0 0 1 1 1 0 1 0 0 0 0 0 0
7 6 6 6 8 9 10 9 9 8 7 6 5 4 4 4 3 2 1 0 0 0 0 1 1 0 0 0 0 0 0 0 1 1 1 1 1 1 1 0 0 0 0
7 7 8 8 9 10 10 10 10 10 9 7 6 5 5 5 4 3 2 1 0 0 0 1 0 0 0 0 0 0 0 0 0 1 1 1 1 1 1 1 0 0 0
8 8 9 9 9 9 9 9 9 10 9 8 8 7 6 6 5 4 2 2 1 1 1 1 1 1 1 0 0 0 0 0 0 0 0 1 1 1 1 1 1 1 1
9 8 8 9 9 8 7 7 7 7 6 6 6 7 7 7 5 3 2 2 1 1 1 1 1 1 1 1 1 1 1 1 1 1 1 1 1 1 1 1 1 1 1
8 8 7 8 8 6 5 5 5 5 4 3 3 4 5 5 4 2 1 1 1 1 1 1 1 1 1 1 1 1 1 1 1 1 1 1 1 1 1 1 1 0 0
7 7 6 6 5 5 4 4 4 4 4 3 2 2 2 2 2 1 0 1 1 1 1 1 1 2 2 2 2 2 2 2 2 1 1 1 1 0 0 0 0 0 0
6 6 5 4 4 4 4 4 4 4 4 5 4 3 1 1 1 0 0 1 1 2 2 2 2 2 2 2 2 2 2 3 2 1 1 1 0 0 0 0 0 0 0
5 5 5 4 4 4 4 4 3 3 4 4 5 4 3 2 1 1 1 1 2 2 2 2 3 3 3 3 2 2 2 2 2 1 1 0 0 0 0 0 1 1 1
6 5 4 4 4 4 4 4 3 3 3 3 4 4 3 3 3 3 2 1 1 2 2 2 3 3 3 3 2 1 1 1 1 1 0 0 0 0 1 1 1 1 1
6 6 5 5 5 5 5 5 4 3 2 2 3 3 3 3 4 4 3 2 2 3 3 3 2 2 2 1 1 0 0 0 1 1 1 1 0 0 1 1 1 1 1
6 6 6 5 5 6 6 6 4 2 2 2 2 2 2 2 3 4 3 3 3 3 3 2 1 1 1 0 0 0 0 0 1 1 1 0 0 0 0 1 1 1 1
5 5 5 4 4 4 5 4 3 2 2 2 1 2 2 2 2 3 3 3 2 2 1 1 0 0 0 0 0 0 0 0 0 0 0 0 0 0 0 1 1 1 1
5 4 4 3 3 3 2 2 1 1 1 1 1 1 1 1 1 2 2 1 1 0 0 0 0 0 0 0 0 0 0 0 0 0 0 0 0 0 0 0 1 1 1
4 4 3 3 2 1 1 1 0 0 1 1 1 1 1 1 1 1 1 0 0 0 0 0 0 0 0 0 0 0 0 0 0 0 0 0 0 0 0 0 1 1 1
Wind_Speed
6 6 5 5 5 5 4 5 5 4 4 4 4 4 4 4 4 4 3 3 3 3 2 2 2 2 1 1 1 1 1 2 2 2 1 0 1 1 0 1 0 0 1
6 5 5 5 5 5 5 5 4 4 4 4 4 4 4 4 4 4 4 4 3 3 3 2 2 1 1 1 1 1 1 1 2 2 1 0 1 2 1 1 0 0 1
4 4 4 4 5 6 6 5 4 4 4 4 4 4 4 3 3 4 4 3 3 3 3 3 2 2 1 1 1 1 1 1 1 2 1 1 0 1 0 0 0 0 0
5 5 5 5 5 5 5 5 4 4 3 4 4 4 4 4 4 3 3 3 2 2 3 3 3 3 3 2 2 2 1 1 1 1 1 1 1 1 1 1 0 1 1
5 5 6 5 4 4 4 4 4 4 4 4 4 4 4 4 4 4 4 3 3 2 2 2 3 3 3 3 2 2 2 2 1 1 1 1 1 1 2 2 2 1 1
5 5 4 4 4 5 4 4 4 4 4 4 4 4 4 3 5 6 5 4 3 3 3 2 2 2 2 3 4 4 4 4 3 3 2 2 3 3 2 2 2 1 1
4 4 5 5 5 5 6 5 6 5 4 4 4 4 4 4 5 6 6 4 3 3 3 2 2 1 1 1 2 2 3 4 5 5 4 4 4 4 4 3 3 3 3
4 4 5 5 5 4 5 6 6 5 5 5 4 4 4 3 6 6 6 4 3 3 3 4 3 2 2 2 2 1 2 2 3 3 4 5 4 4 5 5 4 2 0
3 4 4 5 6 6 7 6 5 5 5 5 4 5 4 3 5 6 5 3 2 2 2 3 3 2 3 4 3 2 2 2 2 3 4 3 3 4 4 3 2 2 1
4 4 4 5 5 6 6 6 5 5 5 4 4 4 5 4 5 6 7 3 3 2 1 2 3 3 3 4 4 3 3 3 2 2 2 2 1 2 3 4 5 4 2
4 3 4 4 5 5 4 4 4 4 4 4 4 3 4 5 5 6 7 4 4 3 2 2 2 3 2 3 3 3 4 3 1 1 1 1 1 1 1 2 3 4 4
2 3 4 4 3 3 4 4 4 4 4 4 4 3 2 3 4 5 6 6 5 4 4 3 2 3 2 2 2 2 1 1 1 1 0 1 1 1 1 1 2 2 3
2 3 3 2 2 2 3 4 4 4 4 3 3 3 2 2 2 4 5 5 6 4 2 3 3 3 2 1 2 1 2 1 1 1 1 2 2 2 1 0 0 0 1
2 3 3 2 2 2 2 3 4 4 4 3 3 3 2 2 2 2 2 3 4 3 2 2 3 2 1 0 0 0 1 1 2 2 2 2 1 0 1 1 1 1 0
2 2 3 3 3 2 1 1 3 3 5 5 4 4 4 4 4 5 5 4 3 3 3 1 1 1 0 0 0 0 0 0 1 1 1 1 1 1 1 1 1 1 1
1 2 2 2 3 3 3 1 3 1 2 4 5 5 3 4 6 6 7 6 6 7 5 2 2 3 3 2 2 1 1 1 2 1 1 1 1 2 2 1 1 2 2
1 2 2 2 3 3 3 3 2 1 2 2 4 4 4 5 5 6 7 6 5 7 4 3 3 3 3 3 2 2 2 2 2 2 1 1 1 1 1 1 2 2 2
1 1 2 2 3 3 3 3 3 3 2 0 0 2 3 3 4 5 6 6 3 3 3 3 3 3 3 3 3 2 2 1 1 1 1 1 1 1 1 1 2 2 3
1 1 1 1 2 3 3 3 3 3 3 2 1 0 1 2 1 2 5 4 4 4 4 3 3 3 3 3 3 3 2 2 1 1 1 1 1 1 1 2 2 3 3
1 0 1 1 2 2 2 2 2 2 2 2 2 1 1 1 1 1 2 2 3 3 3 3 2 2 2 2 2 2 2 2 2 1 1 1 1 1 2 2 2 2 3
0 1 1 1 1 2 2 2 2 2 2 2 2 2 4 2 2 2 2 3 3 3 3 2 2 2 2 2 2 2 2 2 1 1 1 1 1 1 2 2 2 2 2
1 1 1 2 2 2 2 2 2 2 2 2 1 1 3 2 1 1 2 2 2 2 2 2 2 2 2 2 3 3 2 2 1 1 1 1 1 1 2 2 2 2 2
1 1 1 1 1 2 2 2 2 2 2 2 2 2 2 2 1 1 1 1 1 1 1 2 2 1 1 1 2 2 3 3 2 2 2 1 1 1 1 2 3 2 2
1 1 1 2 2 2 2 2 2 3 3 2 2 3 3 2 2 1 1 1 1 1 1 2 2 3 2 1 1 1 1 1 1 1 2 2 2 2 2 2 2 3 3
1 1 2 2 2 2 2 2 2 2 2 2 2 2 2 2 2 1 1 1 2 2 2 2 2 2 3 3 3 2 1 1 1 0 0 1 1 1 2 2 2 3 3
1 2 2 2 2 2 2 3 2 2 2 2 2 2 2 2 2 2 2 1 2 2 2 2 3 3 3 3 3 2 2 1 1 1 0 1 1 1 1 2 2 2 2
Wind_Direction
185 191 193 196 197 192 194 202 203 204 194 191 194 189 188 190 188 178 186 174 175 185 185 179 200 189 192 222 198 183 188 175 204 260 248 233 162 182 247 274 223 195 231
185 187 195 198 195 195 202 202 197 199 197 190 185 183 187 185 178 174 184 180 175 182 190 179 208 187 199 224 202 206 205 196 184 233 255 220 216 212 194 208 213 182 226
175 180 189 198 199 200 201 196 192 196 199 191 177 174 174 173 173 176 172 174 178 184 185 183 201 175 213 234 210 212 224 216 186 187 231 245 255 198 133 241 211 355 230
181 187 195 205 207 202 192 185 188 192 195 191 178 172 170 166 164 165 160 171 180 185 186 192 200 194 204 212 212 217 209 211 200 180 212 248 257 232 155 195 290 304 265
185 195 203 208 204 184 179 176 180 187 193 190 174 170 169 172 174 164 164 169 173 187 202 213 211 193 186 196 199 206 194 202 202 195 210 232 238 209 216 207 211 235 268
191 199 199 199 197 183 181 171 173 186 187 181 176 177 180 190 170 163 165 171 178 190 209 233 232 211 217 217 212 202 192 193 203 203 211 220 233 222 211 195 176 157 250
200 203 201 196 193 189 185 179 187 191 187 182 185 180 182 186 176 173 176 176 181 193 195 205 229 232 211 224 229 226 228 222 204 197 204 220 219 216 200 197 190 183 209
198 199 197 198 199 196 189 192 196 191 189 190 190 185 176 183 183 182 183 176 175 188 191 194 195 210 219 199 203 220 246 243 227 212 213 225 223 217 201 199 196 183 260
203 207 201 196 197 199 202 202 195 188 193 194 187 180 174 180 182 184 170 158 180 209 210 195 187 202 226 190 178 202 250 280 267 241 234 230 217 198 177 154 153 149 211
213 214 206 202 204 203 204 202 195 185 190 185 180 178 174 182 186 189 176 168 180 208 230 220 200 198 205 182 180 188 220 253 275 304 293 285 237 212 191 184 180 174 174
215 207 206 208 206 202 198 198 188 182 179 181 178 180 182 186 185 183 180 178 184 195 215 219 228 211 185 179 184 200 226 227 221 220 247 284 321 286 231 214 189 177 178
208 211 218 216 211 197 183 182 177 176 179 183 179 184 200 193 180 181 181 185 182 185 213 219 220 204 187 187 193 218 200 169 146 153 211 250 262 274 267 234 207 203 204
206 222 227 223 212 185 173 179 179 171 183 188 186 189 199 196 189 184 181 181 172 181 212 209 189 179 180 198 216 201 163 151 156 176 218 241 241 238 236 269 325 309 306
209 220 209 194 191 191 179 176 178 181 183 187 191 192 201 205 203 189 183 181 174 178 194 191 176 160 154 175 76 170 170 174 176 205 233 251 272 246 216 202 202 183 242
235 224 207 190 176 164 153 167 182 192 190 183 193 188 188 207 219 198 182 184 185 186 153 113 101 112 151 286 297 277 219 133 200 228 229 238 251 245 246 222 191 176 208
244 236 208 190 169 160 153 98 37 120 146 167 182 182 196 197 196 193 189 187 180 164 146 161 179 184 191 198 203 223 223 219 224 217 215 217 228 235 239 229 203 202 224
244 228 192 177 170 168 167 165 155 47 81 120 151 163 173 188 196 190 184 177 168 152 150 178 186 190 196 195 198 203 214 221 210 198 205 217 221 230 232 232 226 227 235
234 210 197 189 180 174 177 179 170 167 168 151 120 165 170 182 195 192 173 145 141 160 183 190 196 197 196 197 201 207 214 205 185 194 200 211 213 210 226 242 236 233 239
248 197 189 190 167 162 164 163 164 162 166 163 117 84 180 155 138 153 150 156 170 178 192 199 200 197 199 199 198 201 197 193 194 193 207 214 213 207 239 252 252 252 243
262 209 175 165 161 161 158 163 172 168 169 168 175 193 150 116 125 131 162 180 179 180 183 190 198 201 200 196 193 191 187 190 196 198 218 227 223 211 227 240 242 243 244
234 180 154 143 150 168 170 172 168 164 174 180 193 197 168 165 180 174 171 188 191 187 184 183 188 194 193 186 182 174 172 186 195 204 225 241 236 236 243 242 243 243 248
200 191 184 175 167 165 166 156 143 147 158 159 143 119 159 153 162 169 183 197 199 190 182 177 180 184 183 180 175 168 172 189 207 212 225 242 244 246 245 249 253 252 254
193 186 175 163 151 147 144 137 139 146 149 146 145 131 140 166 172 179 190 191 168 154 158 152 148 136 140 167 168 164 176 201 210 202 201 222 245 254 250 245 252 252 251
135 140 135 133 126 127 132 133 137 142 142 138 138 142 151 160 154 145 147 141 129 115 116 127 133 133 131 129 125 125 143 197 215 204 202 215 236 243 243 249 254 252 250
104 109 115 126 126 125 122 121 123 122 124 128 130 136 144 147 146 136 135 139 133 125 119 110 106 107 116 117 103 91 81 63 24 344 217 200 229 248 251 253 257 262 257
90 101 110 118 120 124 126 127 126 123 120 116 113 116 125 128 122 109 101 95 100 104 100 94 92 98 101 98 100 98 79 45 356 336 273 197 227 264 271 267 266 261 263